Location: Voyageurs National Park
(48.5020°N, 92.9292°W)
Time: 13:59:26
(UTC-06:00)

PCSat - Visible Passes

Search period start: 21 January 2018 00:00
Search period end: 31 January 2018 00:00
Orbit: 786 x 794 km, 67.1° (Epoch: 20 January)

Date Brightness Start Highest point End Pass type
(mag) Time Alt. Az. Time Alt. Az. Time Alt. Az.
21 Jan 10.0 18:58:45 10° NW 19:04:07 61° WSW 19:09:26 10° SSE visible
22 Jan 9.7 18:27:47 10° NW 18:33:14 80° WSW 18:38:39 10° SSE visible
22 Jan 12.4 20:13:10 10° WNW 20:15:45 14° WSW 20:18:19 10° SW visible
23 Jan 9.5 17:56:51 10° NNW 18:02:19 80° NE 18:07:46 10° SE visible
23 Jan 12.2 19:41:25 10° WNW 19:45:05 19° WSW 19:48:43 10° SSW visible
24 Jan 9.6 17:25:58 10° NNW 17:31:22 62° NE 17:36:45 10° SE visible
24 Jan 11.8 19:10:01 10° NW 19:14:22 25° WSW 19:18:41 10° SSW visible
25 Jan 11.4 18:38:48 10° NW 18:43:37 33° WSW 18:48:23 10° S visible
26 Jan 10.9 18:07:41 10° NW 18:12:49 44° WSW 18:17:55 10° S visible
27 Jan 12.9 07:12:39 10° SE 07:15:12 13° ESE 07:17:45 10° ENE visible
27 Jan 10.4 17:36:39 10° NW 17:42:00 58° WSW 17:47:17 10° SSE visible
28 Jan 12.9 18:51:16 10° WNW 18:53:36 13° WSW 18:55:56 10° SW visible
29 Jan 12.7 18:19:24 10° WNW 18:22:56 18° WSW 18:26:27 10° SSW visible
30 Jan 12.4 17:47:58 10° WNW 17:52:13 24° WSW 17:56:27 10° SSW visible
